Tracking 23099 objects as of 13-May-2021
HD Live streaming from Space Station
objects crossing your sky now

STARLINK-1994

Track STARLINK-1994 now!
10-day predictions
STARLINK-1994 is classified as:


NORAD ID: 47589
Int'l Code: 2021-009AT
Perigee: 544.7 km
Apogee: 546.4 km
Inclination: 53.1 °
Period: 95.4 minutes
Semi major axis: 6916 km
RCS: Unknown
Launch date: February 4, 2021
Source: United States (US)
Launch site: AIR FORCE EASTERN TEST RANGE (AFETR)
aabbcc
Your satellite tracking list
Your tracking list is empty




NASA's NSSDC Master Catalog

Two Line Element Set (TLE):
1 47589U 21009AT  21132.91668981 -.01126064  00000-0 -75838-1 0  9996
2 47589  53.0536  10.5253 0001271  95.3524 318.1289 15.09271706  1766
Source of the keplerian elements: AFSPC